TimeCST,TemperatureF,Dew PointF,Humidity,Sea Level PressureIn,VisibilityMPH,Wind Direction,Wind SpeedMPH,Gust SpeedMPH,PrecipitationIn,Events,Conditions,WindDirDegrees,DateUTC
12:53 AM,37.0,28.0,70,29.91,10.0,South,6.9,-,N/A,,Clear,180,2012-11-21 06:53:00
1:53 AM,36.0,28.0,73,29.91,7.0,South,6.9,-,N/A,,Clear,180,2012-11-21 07:53:00
2:53 AM,33.1,27.0,78,29.91,10.0,South,6.9,-,N/A,,Clear,190,2012-11-21 08:53:00
3:53 AM,32.0,27.0,82,29.90,10.0,SSW,5.8,-,N/A,,Clear,200,2012-11-21 09:53:00
4:53 AM,33.1,27.0,78,29.89,10.0,SSE,4.6,-,N/A,,Clear,160,2012-11-21 10:53:00
5:53 AM,33.8,28.4,81,29.87,10.0,South,5.8,-,N/A,,Clear,170,2012-11-21 11:53:00
6:53 AM,33.1,28.0,82,29.89,10.0,Calm,Calm,-,N/A,,Clear,0,2012-11-21 12:53:00
7:53 AM,34.0,28.0,79,29.89,10.0,SSE,6.9,-,N/A,,Clear,150,2012-11-21 13:53:00
8:53 AM,35.1,30.0,82,29.91,10.0,South,5.8,-,N/A,,Clear,170,2012-11-21 14:53:00
9:53 AM,37.9,30.0,73,29.89,10.0,SSE,3.5,-,N/A,,Clear,150,2012-11-21 15:53:00
10:53 AM,41.0,32.0,70,29.88,10.0,East,3.5,-,N/A,,Clear,80,2012-11-21 16:53:00
11:53 AM,48.0,34.0,58,29.83,10.0,SE,5.8,-,N/A,,Clear,140,2012-11-21 17:53:00
12:53 PM,54.0,36.0,51,29.78,10.0,SSE,5.8,-,N/A,,Clear,150,2012-11-21 18:53:00
1:53 PM,57.0,36.0,45,29.75,10.0,SSE,8.1,-,N/A,,Clear,150,2012-11-21 19:53:00
2:53 PM,57.0,36.0,45,29.71,10.0,ESE,6.9,-,N/A,,Clear,120,2012-11-21 20:53:00
3:53 PM,59.0,37.0,44,29.68,10.0,SE,5.8,-,N/A,,Clear,130,2012-11-21 21:53:00
4:53 PM,57.0,35.1,44,29.66,10.0,SE,9.2,-,N/A,,Clear,140,2012-11-21 22:53:00
5:53 PM,55.9,36.0,47,29.64,10.0,SSE,15.0,-,N/A,,Clear,160,2012-11-21 23:53:00
6:53 PM,53.1,36.0,52,29.61,10.0,SSE,20.7,26.5,N/A,,Clear,150,2012-11-22 00:53:00
7:53 PM,51.1,36.0,56,29.59,10.0,South,13.8,23.0,N/A,,Clear,170,2012-11-22 01:53:00
8:53 PM,48.0,36.0,63,29.57,10.0,South,10.4,-,N/A,,Clear,170,2012-11-22 02:53:00
9:53 PM,46.9,35.1,63,29.56,10.0,SSE,11.5,-,N/A,,Clear,160,2012-11-22 03:53:00
10:53 PM,39.0,33.1,79,29.56,10.0,South,5.8,-,N/A,,Clear,190,2012-11-22 04:53:00
11:53 PM,36.0,32.0,86,29.55,10.0,SSW,3.5,-,N/A,,Clear,210,2012-11-22 05:53:00